Date,TemperatureHighF,TemperatureAvgF,TemperatureLowF,DewpointHighF,DewpointAvgF,DewpointLowF,HumidityHigh,HumidityAvg,HumidityLow,PressureMaxIn,PressureMinIn,WindSpeedMaxMPH,WindSpeedAvgMPH,GustSpeedMaxMPH,PrecipitationSumIn
2014-1-1,23.7,14.8,10.4,-9.5,-15.7,-19.2,24,24,22,28.80,28.59,6,0,40,0.00
2014-1-2,15.3,8.0,-1.8,-15.1,-21.2,-29.7,24,24,24,28.80,28.29,5,2,13,0.00
2014-1-3,10.0,1.0,-6.3,-19.9,-27.2,-33.5,24,24,24,28.80,28.20,6,3,12,0.00
2014-1-4,21.5,7.0,-7.7,-11.4,-22.5,-34.8,24,24,22,28.85,28.71,9,3,22,0.00
2014-1-5,38.9,25.4,10.6,24.7,-3.8,-19.0,66,29,19,28.77,28.41,7,1,15,0.13
2014-1-6,53.9,36.5,20.0,48.2,22.7,-12.6,81,61,19,28.41,28.03,10,2,26,1.29
2014-1-7,19.8,5.8,0.9,-12.3,-23.2,-27.4,24,24,22,28.59,28.03,0,0,0,0.00
2014-1-8,20.0,8.1,-0.4,-12.3,-21.4,-28.5,24,24,22,28.88,28.59,0,0,0,0.00
2014-1-9,26.3,14.7,7.9,-8.3,-16.5,-99.9,24,23,21,29.06,28.83,0,0,0,0.00
2014-1-10,32.7,23.5,11.7,24.4,1.7,-18.1,71,39,23,29.00,28.77,0,0,0,0.00
2014-1-11,55.2,46.2,32.2,50.0,40.0,23.5,81,77,70,28.71,28.03,10,4,24,1.07
2014-1-12,48.6,36.1,31.6,42.8,4.4,-4.8,80,29,19,28.47,28.03,6,2,18,0.04
2014-1-13,46.4,36.9,27.8,4.0,-1.4,-7.3,23,19,17,28.59,28.38,9,4,22,0.00
2014-1-14,43.3,41.4,37.6,33.8,20.3,1.9,69,47,18,28.38,28.17,8,3,17,0.58
2014-1-15,44.2,35.2,29.7,28.2,13.3,1.2,69,44,20,28.50,28.29,5,1,11,0.00
2014-1-16,36.3,33.8,32.2,16.4,12.7,7.5,46,41,30,28.44,28.35,1,0,4,0.00
2014-1-17,38.9,32.3,28.6,22.7,4.2,-6.6,69,34,19,28.47,28.38,7,1,13,0.00
2014-1-18,31.8,29.8,28.4,8.9,6.2,-2.0,41,36,25,28.41,28.15,3,0,6,0.00
2014-1-19,29.1,25.5,23.5,8.4,-2.5,-9.7,42,30,21,28.23,28.03,8,3,17,0.00
2014-1-20,37.9,27.8,12.7,2.7,-6.4,-17.1,31,22,19,28.35,28.03,7,-1,17,0.00
2014-1-21,12.9,8.3,4.5,-17.0,-20.9,-24.3,24,24,24,28.50,28.35,4,1,11,0.00
2014-1-22,12.2,4.1,-2.7,-17.6,-24.6,-30.5,24,24,24,28.35,28.15,5,2,13,0.00
2014-1-23,19.0,4.9,-3.4,-12.9,-24.0,-31.1,24,24,23,28.56,28.32,4,1,13,0.00
2014-1-24,15.9,6.0,-2.6,-14.8,-23.0,-30.3,24,24,23,28.65,28.44,8,-19,15,0.00
2014-1-25,27.5,17.7,8.9,-0.8,-11.1,-20.4,34,27,21,28.44,28.03,12,-44,21,0.00
2014-1-26,18.0,12.1,5.5,-6.9,-16.9,-23.3,35,25,23,28.29,28.03,7,-92,17,0.00
2014-1-27,34.7,23.6,14.7,0.9,-8.3,-15.4,33,24,20,28.29,28.03,10,-256,20,0.00
2014-1-28,18.0,11.8,8.4,32.0,32.0,32.0,24,24,23,28.70,28.61,7,1,8,0.00
2014-1-29,23.5,12.9,7.2,32.0,32.0,32.0,24,23,22,28.61,28.41,8,2,11,0.00
2014-1-30,29.3,14.6,3.0,32.0,32.0,32.0,24,23,20,28.82,28.59,8,2,10,0.00
2014-1-31,37.6,26.4,14.5,32.0,32.0,32.0,34,23,19,28.64,28.47,10,3,13,0.00
2014-2-1,43.3,31.3,21.7,32.0,32.0,32.0,31,21,18,28.79,28.47,8,2,12,0.00
2014-2-2,43.0,35.7,32.2,32.0,32.0,32.0,45,34,18,28.47,20.52,8,2,10,0.00
2014-2-3,32.2,27.7,20.8,32.0,32.0,32.0,32,24,20,17.72,17.72,3,0,5,0.00
2014-2-4,33.6,23.9,15.3,32.0,32.0,32.0,26,23,20,17.72,17.72,4,0,6,0.00
2014-2-5,25.2,22.3,19.6,32.0,32.0,32.0,34,28,21,17.72,17.72,5,1,9,0.00
2014-2-6,26.6,16.7,8.8,32.0,32.0,32.0,34,24,21,17.72,17.72,5,0,7,0.00
2014-2-7,27.9,15.9,6.4,32.0,32.0,32.0,24,23,21,28.91,17.72,8,2,10,0.00
2014-2-8,28.0,17.1,7.9,32.0,32.0,32.0,24,23,21,28.94,28.82,5,1,8,0.00
2014-2-9,30.9,20.5,12.2,32.0,32.0,32.0,33,24,20,28.85,28.64,6,1,8,0.00
2014-2-10,24.4,16.9,7.5,32.0,32.0,32.0,34,26,22,28.88,28.61,6,1,10,0.00
2014-2-11,23.9,11.2,3.0,32.0,32.0,32.0,24,24,22,29.09,28.88,8,1,11,0.00
2014-2-12,30.9,12.9,-2.2,32.0,32.0,32.0,24,23,20,29.23,29.06,7,1,9,0.00
2014-2-13,29.1,21.5,13.6,32.0,32.0,32.0,42,32,23,29.06,27.82,7,2,10,0.00
2014-2-14,30.2,26.2,21.7,32.0,32.0,32.0,43,29,21,28.47,27.67,8,3,13,0.00
2014-2-15,28.9,24.5,19.4,32.0,32.0,32.0,36,26,22,28.59,28.29,7,1,10,0.00
2014-2-16,28.0,19.6,14.0,32.0,32.0,32.0,24,23,21,28.70,28.29,9,3,12,0.00
2014-2-17,25.5,13.3,5.9,32.0,32.0,32.0,24,23,21,29.06,28.70,8,1,9,0.00
2014-2-18,22.5,15.7,5.2,32.0,32.0,32.0,33,26,22,29.03,28.67,4,0,6,0.00
2014-2-19,28.6,23.4,15.4,32.0,32.0,32.0,37,31,20,28.79,28.47,5,0,6,0.00
2014-2-20,40.8,32.6,25.5,32.0,32.0,32.0,40,28,18,28.94,28.59,8,1,10,0.56
2014-2-21,34.7,33.0,32.0,32.0,32.0,32.0,62,47,36,28.85,28.44,4,0,6,0.68
2014-2-22,43.0,35.8,29.1,32.0,32.0,32.0,62,35,18,28.70,28.59,12,3,16,0.12
2014-2-23,41.0,35.4,30.4,32.0,32.0,32.0,20,19,18,28.73,28.53,8,2,10,0.00
2014-2-24,34.3,24.5,16.0,32.0,32.0,32.0,23,22,20,28.64,28.50,9,3,15,0.00
2014-2-25,23.5,16.5,11.3,32.0,32.0,32.0,24,23,22,28.67,28.56,7,2,12,0.00
2014-2-26,26.2,12.8,5.5,32.0,32.0,32.0,24,23,21,28.61,28.47,10,2,13,0.00
2014-2-27,24.3,12.1,3.2,32.0,32.0,32.0,24,23,22,28.61,28.29,14,2,22,0.00
2014-2-28,20.1,8.7,-0.4,32.0,32.0,32.0,24,24,22,29.09,28.61,7,1,10,0.00
2014-3-1,28.2,17.4,3.0,32.0,32.0,32.0,24,22,21,29.09,28.79,9,3,13,0.00
2014-3-2,35.1,27.1,20.5,32.0,32.0,32.0,22,21,20,28.79,28.70,7,2,12,0.00
2014-3-3,20.5,13.6,7.9,32.0,32.0,32.0,24,24,22,28.97,28.70,6,2,8,0.00
2014-3-4,25.3,14.9,1.0,32.0,32.0,32.0,24,23,21,29.03,28.94,6,1,8,0.00
2014-3-5,24.3,18.1,8.2,32.0,32.0,32.0,24,23,22,29.18,28.91,4,0,6,0.00
2014-3-6,29.3,14.5,0.0,32.0,32.0,32.0,24,23,20,29.29,29.15,4,0,6,0.00
2014-3-7,36.5,23.1,7.5,32.0,32.0,32.0,24,22,19,29.18,28.67,8,1,10,0.00
2014-3-8,46.6,33.6,23.5,32.0,32.0,32.0,22,20,17,28.67,28.50,8,1,10,0.00
2014-3-9,36.7,28.0,22.1,32.0,32.0,32.0,22,21,19,28.67,28.59,7,2,11,0.00
2014-3-10,38.5,30.2,23.7,32.0,32.0,32.0,22,21,19,28.61,28.35,8,2,9,0.00
2014-3-11,49.5,39.1,30.2,32.0,32.0,32.0,34,21,16,28.50,28.23,8,3,12,0.00
2014-3-12,38.3,35.2,31.8,32.0,32.0,32.0,63,32,19,28.50,27.85,5,1,8,0.68
2014-3-13,31.8,14.2,7.0,32.0,32.0,32.0,63,27,23,28.64,27.85,14,1,17,0.00
2014-3-14,31.1,19.0,4.1,32.0,32.0,32.0,24,22,20,28.85,28.61,11,4,17,0.00
2014-3-15,49.3,36.7,29.3,32.0,32.0,32.0,41,22,16,28.64,28.44,9,4,17,0.08
2014-3-16,29.1,23.3,14.5,32.0,32.0,32.0,24,22,20,28.91,28.61,8,3,15,0.00
2014-3-17,29.3,17.8,9.1,32.0,32.0,32.0,24,23,20,28.88,28.73,5,0,6,0.00
2014-3-18,37.4,23.9,9.5,32.0,32.0,32.0,24,22,19,29.06,28.82,7,0,7,0.00
2014-3-19,37.6,29.2,19.6,32.0,32.0,32.0,37,22,19,29.09,28.70,7,1,10,0.00
2014-3-20,40.8,34.8,31.1,32.0,32.0,32.0,44,31,18,28.73,28.41,10,2,11,0.72
2014-3-21,36.9,31.2,25.7,32.0,32.0,32.0,21,20,19,28.76,28.47,9,3,14,0.00
2014-3-22,47.3,31.9,22.1,32.0,32.0,32.0,22,20,17,28.79,28.44,10,3,22,0.00
2014-3-23,36.7,29.2,16.2,32.0,32.0,32.0,23,20,19,28.76,28.64,7,2,18,0.00
2014-3-24,27.7,17.9,8.8,32.0,32.0,32.0,24,23,21,28.85,28.73,7,2,12,0.00
2014-3-25,32.7,22.0,10.4,32.0,32.0,32.0,24,22,20,28.82,28.64,10,2,11,0.00
2014-3-26,29.5,23.7,15.4,32.0,32.0,32.0,24,22,20,28.73,28.44,11,4,17,0.00
2014-3-27,37.9,25.3,11.1,32.0,32.0,32.0,24,21,19,29.03,28.73,7,3,13,0.00
2014-3-28,45.1,37.2,30.4,39.0,33.5,32.0,83,42,19,28.94,28.70,13,5,15,0.36
2014-3-29,48.6,39.1,34.0,41.0,33.1,32.0,84,58,12,29.00,28.73,5,1,7,0.48
2014-3-30,37.2,34.7,33.3,32.0,32.0,32.0,72,65,50,28.73,28.41,7,2,10,2.59
2014-3-31,33.8,32.3,30.4,32.0,32.0,32.0,70,48,28,28.79,28.44,5,0,6,1.44
2014-4-1,50.0,37.2,27.0,32.0,32.0,32.0,35,25,16,28.85,28.76,5,0,6,0.00
2014-4-2,52.5,40.8,30.6,32.0,32.0,32.0,30,20,16,28.85,28.76,8,2,15,0.00
2014-4-3,50.0,39.1,31.1,32.0,32.0,32.0,20,19,16,28.88,28.82,6,1,9,0.00
2014-4-4,50.5,37.2,30.9,32.0,32.0,32.0,41,22,16,28.88,28.64,7,0,7,0.20
2014-4-5,43.3,35.4,31.6,32.0,32.0,32.0,55,33,18,28.70,28.47,8,1,22,1.24
2014-4-6,51.4,38.9,28.2,32.0,32.0,32.0,21,19,17,28.94,28.67,7,2,14,0.00
2014-4-7,56.1,43.3,33.3,32.0,32.0,32.0,37,19,16,28.97,28.67,8,1,11,0.00
2014-4-8,58.1,45.3,36.1,45.0,33.9,32.0,71,44,17,28.64,28.11,11,3,14,0.80
2014-4-9,53.1,41.0,29.5,32.0,32.0,32.0,30,20,16,28.70,28.32,9,2,13,0.00
2014-4-10,58.8,43.2,28.0,32.0,32.0,32.0,21,18,16,28.88,28.70,13,4,17,0.00
2014-4-11,66.4,51.1,43.2,32.0,32.0,32.0,38,20,15,28.82,28.67,12,3,15,0.12
2014-4-12,65.3,50.5,37.0,32.0,32.0,32.0,42,26,15,28.97,28.76,9,1,9,0.12
2014-4-13,59.0,47.4,40.3,32.0,32.0,32.0,41,23,17,29.03,28.76,5,0,7,0.00
2014-4-14,72.1,61.2,47.3,32.0,32.0,32.0,36,21,14,28.79,28.64,20,8,24,0.00
2014-4-15,59.9,55.3,32.5,48.0,34.8,32.0,68,38,22,28.67,28.32,14,6,24,2.03
2014-4-16,37.2,30.4,22.1,32.0,32.0,32.0,44,25,19,29.29,28.53,9,1,15,0.12
2014-4-17,46.9,32.3,22.1,32.0,32.0,32.0,22,20,17,29.50,29.29,6,1,10,0.00
2014-4-18,45.5,34.8,24.1,32.0,32.0,32.0,32,21,17,29.35,28.97,6,1,7,0.00
2014-4-19,59.0,43.5,31.5,32.0,32.0,32.0,32,21,17,29.15,28.91,10,2,11,0.00
2014-4-20,60.3,44.7,29.7,32.0,32.0,32.0,20,18,17,29.23,29.09,6,1,9,0.00
2014-4-21,68.2,51.3,34.3,32.0,32.0,32.0,20,17,15,29.06,28.61,9,3,10,0.00
2014-4-22,71.2,56.0,44.1,32.0,32.0,32.0,39,18,14,28.61,28.26,9,2,12,0.00
2014-4-23,51.1,45.4,39.6,32.0,32.0,32.0,41,29,17,28.44,28.26,8,2,15,0.08
2014-4-24,53.1,43.0,33.3,32.0,32.0,32.0,20,19,16,28.70,28.41,10,5,16,0.00
2014-4-25,62.1,48.8,32.7,32.0,32.0,32.0,20,18,16,28.76,28.59,7,1,8,0.00
2014-4-26,48.6,41.1,36.1,32.0,32.0,32.0,50,36,16,28.64,28.53,5,0,8,0.88
2014-4-27,48.2,41.5,36.1,32.0,32.0,32.0,58,35,19,28.85,28.59,7,1,11,0.04
2014-4-28,62.8,46.5,33.8,32.0,32.0,32.0,36,23,16,28.97,28.76,5,1,8,0.00
2014-4-29,45.9,39.4,35.6,32.0,32.0,32.0,40,30,20,29.23,28.97,6,0,9,0.00
2014-4-30,39.6,36.9,35.1,32.0,32.0,32.0,60,44,35,29.23,28.91,4,0,6,0.88
2014-5-1,64.2,48.9,37.4,43.0,32.9,32.0,66,49,18,28.91,28.47,6,0,7,1.08
2014-5-2,64.4,51.7,42.4,32.0,32.0,32.0,34,21,16,28.61,28.50,7,1,12,0.00
2014-5-3,63.3,51.4,40.1,32.0,32.0,32.0,28,19,16,28.64,28.50,8,1,10,0.00
2014-5-4,53.8,47.0,42.6,32.0,32.0,32.0,39,22,17,28.50,28.35,9,3,14,0.00
2014-5-5,59.5,49.4,42.4,32.0,32.0,32.0,28,20,16,28.64,28.44,7,2,11,0.00
2014-5-6,63.0,48.4,37.4,32.0,32.0,32.0,30,20,16,28.82,28.61,8,2,10,0.00
2014-5-7,65.8,51.6,36.3,32.0,32.0,32.0,19,17,15,28.97,28.82,7,1,9,0.00
2014-5-8,73.4,57.2,41.7,32.0,32.0,32.0,28,17,14,28.97,28.85,8,1,11,0.00
2014-5-9,53.4,51.2,48.9,39.0,32.2,32.0,58,30,19,29.00,28.85,5,0,8,0.00
2014-5-10,74.7,63.1,53.4,59.0,42.4,32.0,82,49,13,28.85,28.59,11,3,13,0.24
2014-5-11,75.4,63.9,53.8,32.0,32.0,32.0,37,17,13,28.85,28.61,8,2,11,0.00
2014-5-12,82.8,67.2,50.7,32.0,32.0,32.0,19,15,12,28.91,28.82,7,1,12,0.00
2014-5-13,61.3,49.5,43.7,32.0,32.0,32.0,28,20,16,29.09,28.88,4,0,6,0.00
2014-5-14,73.0,58.0,43.2,32.0,32.0,32.0,25,17,14,29.09,29.00,8,2,10,0.00
2014-5-15,76.1,64.8,58.6,36.0,32.2,32.0,38,24,13,29.06,28.97,9,4,14,0.00
2014-5-16,63.9,61.9,59.9,54.0,41.9,32.0,70,48,31,28.97,28.73,7,2,11,0.12
2014-5-17,66.9,59.6,48.4,54.0,39.1,32.0,70,38,15,28.88,28.59,9,2,14,1.47
2014-5-18,67.1,54.7,43.0,32.0,32.0,32.0,20,17,15,28.91,28.82,6,0,8,0.00
2014-5-19,63.0,53.0,43.0,32.0,32.0,32.0,19,17,16,28.88,28.82,7,1,11,0.00
2014-5-20,72.9,60.1,48.7,32.0,32.0,32.0,19,16,14,28.82,28.73,7,1,11,0.00
2014-5-21,77.2,61.8,48.0,32.0,32.0,32.0,19,16,13,28.79,28.67,10,0,10,0.00
2014-5-22,66.0,55.4,49.3,32.0,32.0,32.0,43,25,15,28.73,28.64,5,1,8,1.40
2014-5-23,56.3,53.3,48.7,41.0,35.9,32.0,57,51,43,28.76,28.64,3,0,4,0.00
2014-5-24,62.1,53.3,48.2,37.0,33.0,32.0,58,41,16,28.85,28.73,4,0,6,3.94
2014-5-25,69.6,58.4,47.7,43.0,32.8,32.0,59,31,15,28.85,28.79,4,0,7,0.00
2014-5-26,71.4,62.5,52.3,32.0,32.0,32.0,38,23,14,28.82,28.64,6,1,8,0.00
2014-5-27,73.8,59.7,44.2,32.0,32.0,32.0,42,22,13,28.73,28.64,6,0,8,0.72
2014-5-28,47.3,45.3,42.6,34.0,32.3,32.0,61,49,39,29.00,28.67,4,0,5,0.64
2014-5-29,66.2,52.2,40.8,32.0,32.0,32.0,52,28,15,29.03,28.91,5,0,6,0.00
2014-5-30,70.9,55.1,47.3,32.0,32.0,32.0,40,26,14,28.91,28.79,4,0,6,0.16
2014-5-31,66.2,54.7,46.6,32.0,32.0,32.0,45,29,15,29.06,28.82,4,0,7,0.00
2014-6-1,74.7,66.7,53.1,32.0,32.0,32.0,34,15,13,29.12,29.00,7,1,8,0.00
2014-6-2,79.9,65.4,49.5,32.0,32.0,32.0,19,15,12,29.03,28.82,6,1,8,0.00
2014-6-3,84.6,68.6,56.5,32.0,32.0,32.0,26,17,11,28.82,28.67,6,1,8,0.00
2014-6-4,68.2,61.4,56.8,34.0,32.4,32.0,39,32,20,28.70,28.59,4,0,4,0.00
2014-6-5,61.2,58.5,55.4,37.0,33.9,32.0,44,39,31,28.59,28.50,3,0,4,0.20
2014-6-6,68.2,59.9,53.8,32.0,32.0,32.0,38,23,15,28.70,28.53,6,1,8,0.00
2014-6-7,79.2,65.6,53.6,32.0,32.0,32.0,31,18,12,28.79,28.70,4,0,9,0.00
2014-6-8,80.4,68.6,57.7,32.0,32.0,32.0,22,15,12,28.79,28.70,5,0,6,0.00
2014-6-9,72.9,63.8,58.5,34.0,32.0,32.0,38,20,14,28.79,28.73,6,1,6,0.00
2014-6-10,77.2,64.8,58.5,43.0,34.7,32.0,51,30,13,28.91,28.76,4,0,5,0.00
2014-6-11,65.8,59.1,54.7,32.0,32.0,32.0,27,21,15,28.97,28.91,4,0,7,0.00
2014-6-12,63.3,57.9,54.5,36.0,32.3,32.0,40,29,20,28.94,28.85,3,0,5,0.00
2014-6-13,60.4,58.3,56.3,43.0,40.0,36.0,57,50,40,28.85,28.61,3,0,5,0.08
2014-6-14,63.5,57.4,56.1,48.0,43.5,39.0,61,58,44,28.64,28.59,3,0,4,0.00
2014-6-15,74.7,67.2,56.1,32.0,32.0,32.0,17,15,13,28.88,28.82,7,2,8,0.00
2014-6-16,78.3,65.4,53.4,32.0,32.0,32.0,20,15,13,28.97,28.85,5,0,7,0.00
2014-6-17,84.4,71.3,59.2,32.0,32.0,32.0,25,16,11,28.88,28.67,7,1,8,0.00
2014-6-18,78.1,70.8,64.2,46.0,34.1,32.0,49,22,13,28.79,28.56,7,2,11,0.63
2014-6-19,78.6,68.7,58.8,32.0,32.0,32.0,31,18,13,28.82,28.76,7,1,9,0.00
2014-6-20,72.0,61.3,52.5,32.0,32.0,32.0,18,16,14,28.82,28.70,6,1,10,0.00
2014-6-21,72.7,59.5,48.2,32.0,32.0,32.0,19,17,14,28.79,28.70,5,0,8,0.00
2014-6-22,72.3,61.3,51.4,32.0,32.0,32.0,19,16,14,28.85,28.73,4,0,6,0.00
2014-6-23,81.3,66.0,54.9,32.0,32.0,32.0,28,18,12,28.97,28.85,5,1,8,0.00
2014-6-24,79.7,66.7,57.4,32.0,32.0,32.0,35,18,12,28.94,28.82,9,3,12,0.00
2014-6-25,83.8,71.1,60.8,41.0,32.9,32.0,38,19,12,28.82,28.67,8,2,11,0.60
2014-6-26,74.7,67.0,61.9,55.0,43.8,32.0,64,45,21,28.82,28.61,4,0,5,0.71
2014-6-27,77.0,66.1,59.0,39.0,33.3,32.0,42,25,13,29.03,28.82,3,0,5,0.00
2014-6-28,81.3,67.4,57.4,34.0,32.0,32.0,35,19,12,29.09,29.03,4,0,5,0.00
2014-6-29,82.9,70.5,59.4,32.0,32.0,32.0,30,17,11,29.06,28.91,5,1,8,0.00
2014-6-30,84.6,71.4,59.2,32.0,32.0,32.0,25,17,11,28.91,28.73,7,2,12,0.00
2014-7-1,86.2,74.3,63.3,36.0,32.3,32.0,34,20,13,28.76,28.61,10,3,13,0.00
2014-7-2,88.9,73.1,67.1,55.0,38.8,32.0,63,31,13,28.76,28.64,7,1,9,2.80
2014-7-3,83.3,72.4,66.2,59.0,44.6,32.0,66,42,14,28.82,28.73,7,0,9,0.83
2014-7-4,66.2,63.7,57.6,55.0,51.1,45.0,66,63,46,28.82,28.67,4,0,6,1.79
2014-7-5,73.2,63.6,53.8,45.0,32.4,32.0,62,21,14,28.85,28.67,7,2,11,0.08
2014-7-6,79.0,67.9,55.9,32.0,32.0,32.0,19,15,12,28.82,28.70,8,1,12,0.00
2014-7-7,81.9,69.9,63.3,45.0,35.1,32.0,47,24,12,28.70,28.53,9,2,14,1.29
2014-7-8,80.6,72.8,65.8,57.0,40.6,32.0,66,35,15,28.64,28.50,7,2,10,0.00
2014-7-9,80.4,71.1,63.7,54.0,38.3,32.0,64,30,12,28.76,28.50,8,2,10,3.01
2014-7-10,75.0,67.4,57.9,43.0,33.6,32.0,53,21,13,28.97,28.76,4,0,6,0.00
2014-7-11,78.6,66.2,57.7,32.0,32.0,32.0,25,17,13,29.03,28.97,4,0,5,0.00
2014-7-12,82.8,69.5,57.7,32.0,32.0,32.0,32,19,11,29.03,28.91,6,1,8,0.00
2014-7-13,80.4,70.0,62.8,48.0,33.2,32.0,48,21,15,28.94,28.67,9,3,15,0.00
2014-7-14,84.4,73.1,67.8,57.0,42.3,32.0,64,37,11,28.73,28.67,6,2,9,0.00
2014-7-15,78.6,71.2,67.6,59.0,48.2,32.0,65,46,18,28.67,28.59,6,1,9,3.51
2014-7-16,71.1,67.1,62.2,57.0,45.9,32.0,66,48,18,28.67,28.56,5,0,6,2.53
2014-7-17,76.8,65.6,57.6,32.0,32.0,32.0,35,20,13,28.88,28.67,5,0,8,0.00
2014-7-18,76.8,64.6,55.6,32.0,32.0,32.0,35,20,13,29.03,28.88,5,0,5,0.00
2014-7-19,73.0,65.1,58.3,34.0,32.0,32.0,34,21,14,29.06,29.00,3,0,5,0.00
2014-7-20,77.4,66.0,59.9,36.0,33.1,32.0,36,25,13,29.00,28.91,4,0,6,0.00
2014-7-21,80.2,67.0,57.0,32.0,32.0,32.0,34,20,12,29.00,28.91,3,0,4,0.00
2014-7-22,86.2,73.6,62.4,37.0,32.2,32.0,34,19,11,28.94,28.79,6,0,10,0.00
2014-7-23,87.3,74.4,66.0,43.0,35.4,32.0,40,25,13,28.79,28.56,8,1,13,0.68
2014-7-24,74.8,66.7,59.2,52.0,39.2,32.0,62,33,13,28.70,28.56,4,0,6,0.12
2014-7-25,76.5,64.4,52.0,32.0,32.0,32.0,29,19,13,28.79,28.70,5,0,6,0.00
2014-7-26,78.6,67.3,59.7,32.0,32.0,32.0,34,21,13,28.76,28.67,7,1,10,0.00
2014-7-27,73.0,67.5,63.1,45.0,36.9,32.0,41,32,22,28.67,28.47,6,1,10,0.24
2014-7-28,75.9,66.3,60.8,55.0,41.6,32.0,59,41,16,28.47,28.26,7,1,9,1.93
2014-7-29,72.1,62.5,55.6,39.0,32.3,32.0,44,25,14,28.73,28.38,5,1,8,0.00
2014-7-30,74.7,63.2,55.9,32.0,32.0,32.0,36,23,13,28.82,28.70,6,0,6,0.00
2014-7-31,74.1,63.9,55.6,36.0,32.5,32.0,37,25,13,28.91,28.79,9,1,12,0.00
2014-8-1,81.5,67.6,59.9,45.0,37.3,32.0,48,33,12,29.00,28.91,6,0,8,0.24
2014-8-2,72.3,65.4,57.4,48.0,37.4,32.0,52,33,16,29.00,28.88,3,0,5,0.00
2014-8-3,71.1,63.3,56.3,36.0,32.4,32.0,38,29,17,28.91,28.79,4,0,4,0.00
2014-8-4,80.6,68.1,60.4,43.0,34.5,32.0,44,28,12,28.82,28.76,4,0,5,0.00
2014-8-5,83.1,70.7,62.2,41.0,34.4,32.0,40,25,11,28.82,28.67,5,0,6,0.24
2014-8-6,76.3,67.3,59.7,41.0,34.2,32.0,42,24,13,28.70,28.59,5,1,9,0.00
2014-8-7,73.2,61.7,54.5,32.0,32.0,32.0,25,18,14,28.73,28.61,5,0,8,0.00
2014-8-8,77.7,64.3,54.0,32.0,32.0,32.0,35,21,13,28.82,28.70,6,0,8,0.00
2014-8-9,80.6,67.1,57.0,32.0,32.0,32.0,28,18,12,28.88,28.79,4,0,5,0.00
2014-8-10,81.5,68.6,59.4,32.0,32.0,32.0,25,16,12,28.91,28.85,4,0,6,0.00
2014-8-11,84.7,70.8,60.1,34.0,32.1,32.0,34,19,11,28.91,28.85,4,1,6,0.00
2014-8-12,78.1,68.2,61.7,37.0,32.6,32.0,35,21,13,28.88,28.76,7,1,8,0.00
2014-8-13,66.6,62.9,59.0,50.0,43.4,32.0,64,51,24,28.76,28.41,6,1,8,5.29
2014-8-14,68.4,59.6,53.6,46.0,36.7,32.0,65,36,15,28.61,28.44,6,1,10,0.00
2014-8-15,64.8,57.5,52.7,32.0,32.0,32.0,36,23,15,28.64,28.56,6,1,8,0.00
2014-8-16,70.9,60.7,52.2,32.0,32.0,32.0,34,21,14,28.70,28.61,7,1,10,0.00
2014-8-17,74.1,63.2,56.7,32.0,32.0,32.0,36,20,13,28.61,28.53,7,1,9,0.00
2014-8-18,72.3,61.5,53.8,32.0,32.0,32.0,34,20,14,28.61,28.53,6,1,8,0.00
2014-8-19,75.0,61.0,50.4,32.0,32.0,32.0,29,19,13,28.67,28.59,4,0,6,0.00
2014-8-20,80.8,65.9,56.1,34.0,32.0,32.0,34,20,12,28.76,28.67,4,0,5,0.00
2014-8-21,65.3,60.9,57.2,34.0,32.1,32.0,36,25,17,28.79,28.76,2,0,4,0.00
2014-8-22,64.6,59.9,57.0,41.0,36.0,32.0,49,41,36,28.82,28.76,2,0,3,0.08
2014-8-23,68.4,60.6,55.8,41.0,34.4,32.0,50,37,17,28.85,28.79,2,0,4,0.00
2014-8-24,77.4,64.0,55.6,36.0,32.3,32.0,41,26,13,28.88,28.82,3,0,4,0.00
2014-8-25,83.3,69.0,59.2,32.0,32.0,32.0,31,20,11,28.91,28.85,3,0,3,0.00
2014-8-26,84.6,71.1,61.9,37.0,32.5,32.0,34,21,11,28.88,28.76,6,1,8,0.00
2014-8-27,85.5,72.3,62.6,39.0,33.6,32.0,38,24,13,28.76,28.59,6,1,8,0.00
2014-8-28,75.6,65.6,56.5,32.0,32.0,32.0,24,18,13,28.70,28.56,5,1,8,0.00
2014-8-29,74.3,60.8,51.6,32.0,32.0,32.0,29,20,13,28.94,28.70,4,0,8,0.00
2014-8-30,74.7,63.5,54.9,36.0,32.1,32.0,40,24,13,28.94,28.79,8,2,10,0.00
2014-8-31,79.7,70.0,63.3,50.0,36.9,32.0,51,30,15,28.79,28.64,7,2,10,0.00
2014-9-1,83.5,73.6,68.0,52.0,39.8,32.0,53,31,11,28.70,28.61,5,0,6,0.00
2014-9-2,84.0,74.0,68.7,54.0,39.8,32.0,53,30,14,28.64,28.44,5,1,8,0.00
2014-9-3,77.0,68.0,60.8,43.0,33.8,32.0,38,24,13,28.79,28.44,6,1,8,2.79
2014-9-4,81.0,67.8,57.7,32.0,32.0,32.0,31,20,12,28.88,28.76,5,1,9,0.00
2014-9-5,85.1,72.0,61.9,41.0,33.3,32.0,34,23,13,28.85,28.67,8,2,12,0.00
2014-9-6,84.4,72.5,62.6,45.0,37.7,32.0,38,28,13,28.67,28.50,8,2,11,0.64
2014-9-7,72.3,63.1,55.9,37.0,32.9,32.0,38,25,14,28.88,28.61,4,0,6,0.16
2014-9-8,73.6,60.1,52.3,32.0,32.0,32.0,33,20,13,29.03,28.88,4,0,5,0.00
2014-9-9,66.6,57.3,49.6,32.0,32.0,32.0,37,23,15,29.00,28.85,3,0,6,0.00
2014-9-10,67.3,58.6,54.0,32.0,32.0,32.0,37,29,15,28.85,28.67,4,0,4,0.00
2014-9-11,67.6,62.2,57.4,54.0,38.3,32.0,59,41,26,28.70,28.47,8,2,13,1.42
2014-9-12,67.6,57.2,47.7,32.0,32.0,32.0,31,20,15,28.91,28.59,6,1,8,0.00
2014-9-13,58.3,51.7,45.5,36.0,32.3,32.0,49,31,19,28.94,28.76,2,0,4,0.32
2014-9-14,60.6,51.1,45.3,34.0,32.1,32.0,49,29,17,28.91,28.79,6,0,6,0.00
2014-9-15,61.9,50.3,41.7,32.0,32.0,32.0,35,25,16,28.88,28.76,4,0,5,0.00
2014-9-16,62.2,52.5,48.6,32.0,32.0,32.0,37,30,19,28.76,28.61,4,0,6,0.00
2014-9-17,66.6,53.6,43.9,32.0,32.0,32.0,40,27,15,28.70,28.61,4,0,6,0.00
2014-9-18,70.3,54.7,45.5,32.0,32.0,32.0,38,23,14,28.79,28.61,5,0,6,0.00
2014-9-19,59.2,46.1,37.8,32.0,32.0,32.0,29,21,16,29.03,28.82,4,0,5,0.00
2014-9-20,65.3,52.1,38.8,32.0,32.0,32.0,34,25,18,29.00,28.76,7,2,15,0.00
2014-9-21,72.7,64.8,57.0,55.0,39.9,32.0,60,41,22,28.76,28.29,6,1,8,0.00
2014-9-22,66.2,57.6,44.1,50.0,33.3,32.0,57,24,15,28.73,28.26,10,1,10,0.00
2014-9-23,67.8,53.4,41.9,32.0,32.0,32.0,27,19,15,29.09,28.73,6,0,8,0.00
2014-9-24,68.4,55.2,48.7,32.0,32.0,32.0,38,25,15,29.26,29.09,4,0,5,0.00
2014-9-25,62.4,54.2,48.7,32.0,32.0,32.0,37,28,16,29.18,28.91,2,0,3,0.00
2014-9-26,74.5,60.0,50.0,32.0,32.0,32.0,37,24,13,28.91,28.82,3,0,6,0.00
2014-9-27,81.1,65.4,55.6,32.0,32.0,32.0,27,20,12,28.88,28.82,3,0,5,0.00
2014-9-28,82.4,67.5,58.1,36.0,32.1,32.0,36,24,12,28.85,28.67,4,0,7,0.00
2014-9-29,73.6,62.4,54.5,32.0,32.0,32.0,36,23,13,28.70,28.61,3,0,6,0.00
2014-9-30,58.5,55.8,53.4,32.0,32.0,32.0,37,34,26,28.70,28.64,0,0,3,0.00
2014-10-1,55.9,54.7,53.6,37.0,34.6,32.0,55,46,37,28.79,28.67,3,0,8,0.36
2014-10-2,59.4,53.1,46.4,39.0,35.3,32.0,58,47,29,28.82,28.76,3,0,5,0.24
2014-10-3,64.8,52.2,44.6,32.0,32.0,32.0,41,30,15,28.82,28.56,4,0,5,0.00
2014-10-4,59.2,53.9,50.2,46.0,37.0,32.0,65,49,37,28.56,28.20,4,0,7,0.80
2014-10-5,57.0,48.1,40.5,39.0,32.8,32.0,63,32,17,28.59,28.23,5,1,11,0.00
2014-10-6,62.8,49.2,37.4,32.0,32.0,32.0,40,25,16,28.76,28.59,7,1,10,0.00
2014-10-7,67.5,58.7,50.0,32.0,32.0,32.0,41,27,15,28.76,28.61,9,2,12,0.00
2014-10-8,66.9,58.6,50.2,36.0,32.3,32.0,43,25,15,28.61,28.38,9,3,22,0.24
2014-10-9,60.6,50.3,41.7,32.0,32.0,32.0,20,17,16,28.61,28.50,9,2,13,0.00
2014-10-10,60.3,47.4,39.6,32.0,32.0,32.0,26,19,16,28.76,28.61,7,1,8,0.00
2014-10-11,53.8,45.3,42.3,32.0,32.0,32.0,39,28,18,28.76,28.67,3,0,4,0.08
2014-10-12,59.2,46.6,38.1,32.0,32.0,32.0,41,28,17,28.91,28.76,5,0,5,0.00
2014-10-13,55.0,48.3,39.7,32.0,32.0,32.0,36,26,18,28.97,28.88,5,2,9,0.00
2014-10-14,69.3,61.1,54.1,55.0,39.0,32.0,71,44,17,28.88,28.79,8,3,12,0.00
2014-10-15,71.1,66.0,60.4,43.0,36.0,32.0,44,33,19,28.79,28.61,8,2,10,0.00
2014-10-16,66.6,64.4,57.7,54.0,49.3,39.0,65,58,38,28.61,28.35,8,1,13,1.93
2014-10-17,66.0,58.4,54.5,46.0,37.7,32.0,65,40,15,28.35,28.26,8,2,13,0.00
2014-10-18,60.1,54.5,48.6,39.0,32.7,32.0,55,36,25,28.32,28.17,6,1,8,0.00
2014-10-19,49.8,43.4,34.2,32.0,32.0,32.0,33,21,16,28.59,28.26,8,2,11,0.00
2014-10-20,53.4,41.3,31.1,32.0,32.0,32.0,23,20,16,28.64,28.56,8,2,10,0.00
2014-10-21,57.4,48.6,43.0,32.0,32.0,32.0,44,31,19,28.64,28.56,4,0,6,0.00
2014-10-22,47.8,46.1,44.1,34.0,32.1,32.0,64,50,42,28.67,28.50,7,2,10,0.87
2014-10-23,48.7,45.9,43.7,39.0,36.2,32.0,70,69,63,28.50,28.32,6,2,10,4.98
2014-10-24,46.9,44.4,42.4,37.0,33.4,32.0,70,50,28,28.41,28.32,5,1,8,0.12
2014-10-25,59.7,47.7,38.5,32.0,32.0,32.0,38,26,17,28.41,28.17,6,1,11,0.00
2014-10-26,54.5,46.0,42.3,32.0,32.0,32.0,36,23,18,28.32,28.08,5,1,10,0.00
2014-10-27,57.6,47.1,40.5,32.0,32.0,32.0,26,20,17,28.64,28.32,8,1,10,0.00
2014-10-28,66.0,50.5,40.1,32.0,32.0,32.0,36,24,15,28.67,28.56,8,1,9,0.00
2014-10-29,62.2,51.9,42.4,46.0,33.9,32.0,61,38,18,28.56,28.44,4,0,6,0.24
2014-10-30,52.3,43.0,37.6,32.0,32.0,32.0,36,26,18,28.61,28.50,5,0,6,0.00
2014-10-31,48.0,42.1,36.3,32.0,32.0,32.0,30,23,19,28.64,28.59,4,0,5,0.00
2014-11-1,39.4,37.0,34.7,32.0,32.0,32.0,44,33,21,28.59,28.44,5,1,10,0.28
2014-11-2,36.9,34.2,32.0,32.0,32.0,32.0,43,25,19,28.47,28.32,9,4,15,0.00
2014-11-3,48.6,37.4,27.0,32.0,32.0,32.0,21,19,17,28.67,28.44,8,2,11,0.00
2014-11-4,58.5,46.6,34.3,32.0,32.0,32.0,20,18,16,28.73,28.61,7,2,9,0.00
2014-11-5,57.6,49.4,40.6,32.0,32.0,32.0,19,17,16,28.73,28.56,8,2,11,0.00
2014-11-6,46.6,41.9,39.9,32.0,32.0,32.0,54,29,17,28.73,28.17,3,0,4,0.24
2014-11-7,41.7,37.0,32.5,32.0,32.0,32.0,57,35,20,28.41,28.11,8,2,13,0.00
2014-11-8,44.6,35.3,27.1,32.0,32.0,32.0,21,19,17,28.53,28.41,7,2,10,0.00
2014-11-9,52.7,40.2,33.8,32.0,32.0,32.0,20,19,16,28.61,28.44,8,2,10,0.00
2014-11-10,52.9,41.3,32.9,32.0,32.0,32.0,23,20,16,28.79,28.59,5,1,8,0.00
2014-11-11,58.5,48.1,39.0,32.0,32.0,32.0,40,26,17,28.76,28.59,8,2,10,0.00
2014-11-12,64.6,49.7,35.2,39.0,32.5,32.0,58,31,15,28.61,28.47,8,1,11,0.00
2014-11-13,45.5,36.8,29.7,32.0,32.0,32.0,34,20,17,28.67,28.56,5,0,8,0.00
2014-11-14,38.8,31.3,25.2,32.0,32.0,32.0,37,26,19,28.67,28.50,5,1,8,0.08
2014-11-15,36.5,27.2,22.1,32.0,32.0,32.0,25,21,19,28.88,28.67,8,1,10,0.00
2014-11-16,37.8,30.1,22.3,32.0,32.0,32.0,22,21,19,28.91,28.67,9,3,13,0.00
2014-11-17,36.9,34.0,32.0,32.0,32.0,32.0,62,42,20,28.67,28.05,5,0,8,1.20
2014-11-18,35.6,26.3,18.1,32.0,32.0,32.0,61,29,20,28.47,28.08,5,0,6,0.00
2014-11-19,33.8,23.2,16.3,32.0,32.0,32.0,23,22,20,28.67,28.47,12,2,13,0.00
2014-11-20,39.2,28.7,22.8,32.0,32.0,32.0,22,21,18,28.59,28.35,12,4,17,0.00
2014-11-21,30.9,22.9,18.0,32.0,32.0,32.0,23,22,20,28.94,28.47,7,2,14,0.00
2014-11-22,35.8,27.3,17.1,32.0,32.0,32.0,23,21,19,28.94,28.61,12,4,17,0.00
2014-11-23,55.0,41.8,33.6,32.0,32.0,32.0,20,19,16,28.70,28.61,7,2,10,0.00
2014-11-24,60.6,52.7,37.6,50.0,35.7,32.0,74,42,18,28.67,28.17,11,5,23,0.64
2014-11-25,55.6,49.2,36.7,32.0,32.0,32.0,37,23,16,28.67,28.32,7,2,13,0.00
2014-11-26,36.9,35.0,32.2,32.0,32.0,32.0,36,22,19,28.76,28.64,4,0,6,0.00
2014-11-29,32.0,23.0,21.2,32.0,32.0,32.0,24,22,21,28.82,0.00,6,2,8,0.00
2014-11-30,42.3,37.0,26.1,32.0,32.0,32.0,40,27,21,28.73,28.59,10,5,14,0.95
2014-12-1,49.8,40.2,31.8,32.0,32.0,32.0,40,25,19,28.97,28.56,6,2,9,0.00
2014-12-2,31.8,28.3,23.9,32.0,32.0,32.0,39,24,20,29.21,28.91,5,0,8,0.00
2014-12-3,39.0,34.6,30.2,32.0,32.0,32.0,75,52,20,28.91,28.41,8,2,13,0.60
2014-12-4,37.4,30.0,22.1,32.0,32.0,32.0,22,20,19,29.03,28.59,6,2,11,0.00
2014-12-5,36.7,26.6,18.0,32.0,32.0,32.0,36,22,19,29.15,28.94,5,0,8,0.00
2014-12-6,33.3,32.5,31.5,32.0,32.0,32.0,61,48,37,28.94,28.67,6,0,6,1.00
2014-12-7,32.7,24.6,11.7,32.0,32.0,32.0,60,25,20,29.15,28.76,3,0,5,0.00
2014-12-8,23.9,16.2,9.3,32.0,32.0,32.0,39,25,22,29.21,29.00,0,0,0,0.00
2014-12-9,34.0,29.7,23.4,32.0,32.0,32.0,70,54,39,29.00,28.14,8,2,14,1.16
2014-12-10,34.3,33.7,32.4,32.0,32.0,32.0,72,72,70,28.17,27.99,6,2,8,0.24
2014-12-11,32.4,28.7,26.6,32.0,32.0,32.0,72,51,37,28.32,27.99,0,0,0,0.00
2014-12-12,32.9,26.9,24.3,32.0,32.0,32.0,42,36,25,28.44,28.32,0,0,0,0.00
2014-12-13,34.7,28.7,25.3,32.0,32.0,32.0,37,29,22,28.41,28.32,6,1,8,0.00
2014-12-14,37.4,29.8,23.7,32.0,32.0,32.0,40,30,21,28.47,28.32,6,1,8,0.00
2014-12-15,37.8,30.3,24.4,32.0,32.0,32.0,35,29,19,28.67,28.44,6,0,9,0.00
2014-12-16,34.3,30.7,24.6,32.0,32.0,32.0,50,41,34,28.67,28.47,4,0,5,0.04
2014-12-17,39.9,35.4,32.0,32.0,32.0,32.0,67,60,41,28.47,28.26,4,0,8,0.64
2014-12-18,35.1,32.2,30.0,32.0,32.0,32.0,41,28,22,28.41,28.26,6,1,9,0.00
2014-12-19,30.0,26.8,21.0,32.0,32.0,32.0,25,22,20,28.64,28.41,7,2,8,0.00
2014-12-20,34.9,25.9,19.2,32.0,32.0,32.0,32,24,20,28.79,28.64,4,0,4,0.00
2014-12-21,30.7,28.2,26.1,32.0,32.0,32.0,34,28,23,28.85,28.76,3,0,4,0.00
2014-12-22,35.1,31.5,28.4,32.0,32.0,32.0,44,34,25,28.88,28.79,2,0,4,0.00
2014-12-23,36.3,34.7,33.1,32.0,32.0,32.0,72,63,44,28.79,28.67,4,0,6,0.64
2014-12-24,45.0,36.2,33.8,36.0,32.1,32.0,73,72,72,28.70,28.11,4,0,6,0.64
2014-12-25,57.0,44.7,35.4,50.0,37.1,32.0,80,46,15,28.50,28.02,11,4,18,0.32
2014-12-26,45.9,36.9,31.6,32.0,32.0,32.0,23,19,17,28.70,28.50,6,1,11,0.00
2014-12-27,47.7,37.0,29.8,32.0,32.0,32.0,25,22,17,28.73,28.53,7,1,9,0.00
2014-12-28,43.3,38.2,31.8,32.0,32.0,32.0,53,28,20,28.53,28.32,8,2,9,0.24
2014-12-29,37.8,29.2,21.6,32.0,32.0,32.0,24,21,19,28.70,28.50,7,1,8,0.00
2014-12-30,25.9,18.9,12.7,32.0,32.0,32.0,24,23,21,28.82,28.70,6,1,9,0.00
2014-12-31,24.8,15.5,10.6,32.0,32.0,32.0,24,23,22,28.76,28.56,6,1,9,0.00
2015-1-1,29.5,20.0,12.0,32.0,32.0,32.0,24,23,20,28.56,28.38,10,5,15,0.00
2015-1-2,33.6,27.0,22.1,32.0,32.0,32.0,22,21,20,28.91,28.41,8,3,13,0.00